Lid_Strength_Index
2 0 -2 -2 -1 -1 -1 -1 -1 -1 -1 -1 -1 -1 -1 -1 -1 -1 -1 -2 -2 -2 -2 -2 -1 -1 -1 -1 -1 -1 -1 -1 -1 -1 -1 -2 -2 -2 -2 -2 -1 -1 -2
2 -0 -1 -1 -1 -1 -1 -1 -1 -1 -1 -1 -1 -1 -2 -1 -1 -1 -1 -2 -2 -1 -1 -2 -1 -1 -1 -1 -2 -1 -1 -1 -1 -2 -1 -1 -1 -2 -1 -1 -2 -1 -2
1 -0 -1 -1 -1 -1 -1 -1 -1 -1 -1 -1 -1 -1 -1 -1 -1 -1 -1 -1 -1 -1 -1 -1 -1 -1 -1 -1 -1 -1 -1 -1 -1 -1 -1 0 -0 -1 -1 -1 -2 -2 -1
2 1 -0 -1 -1 -1 -1 -1 -1 -1 -1 -1 -1 -1 -1 -1 -1 -1 -1 -1 -1 -1 -1 -1 -1 -1 -1 -1 -1 -1 -1 -1 -1 -1 -0 -0 -0 -1 -1 -1 -1 -1 -1
5 3 -0 -1 -1 -1 -1 -1 -1 -1 -1 -1 -1 -2 -2 -1 -1 -1 -1 -2 -2 -1 -1 -1 -1 -1 -1 -1 -1 -1 -1 -1 -0 -0 1 0 0 -1 -1 -1 -1 -1 -1
7 6 -0 -1 -1 -1 -1 -1 -1 -2 -2 -2 -1 -2 -2 -1 -1 -1 -1 -1 -2 -1 -1 -1 -1 -1 -1 -1 -1 -1 -1 -1 0 1 0 -0 0 -1 -2 -1 -1 -1 -1
7 6 5 -1 -1 -1 -1 -1 -1 -1 -1 -2 -2 -2 -2 -1 -1 -2 -1 -1 -2 -1 -1 -1 -1 -1 -1 -1 -1 -1 -1 -1 2 1 0 0 0 -1 -2 -1 -1 -1 -1
8 7 5 3 -1 -1 -1 -1 -1 -1 -1 -1 -2 -2 -2 -1 -1 -2 -1 -2 -2 -1 -1 -1 -1 -1 -1 -1 -1 -1 -2 -1 1 1 1 1 -1 -2 -2 -1 -1 -1 -1
6 8 8 5 4 1 -1 -1 -1 -1 -1 -1 -1 -1 -1 -1 -1 -1 -1 -1 -1 -1 -1 -1 -1 -1 -1 -1 -1 -2 -2 -1 2 1 0 0 -2 -2 -2 -1 -1 -1 -1
6 5 7 8 7 6 2 -0 -0 -1 -1 -1 -1 -0 0 0 -0 -1 -1 -1 -1 -1 -1 -1 -2 -1 -1 -2 -2 -2 -2 -0 3 2 0 0 -2 -2 -2 -1 -1 -1 -1
7 7 6 8 8 7 6 1 0 -0 -0 0 0 1 1 0 -0 0 0 0 -1 -1 -1 -1 -1 -1 -1 -1 -1 -1 -1 2 3 2 0 -1 -2 -2 -2 -1 -1 -1 -1
9 8 7 7 8 6 7 7 3 0 0 0 0 0 0 0 0 -0 1 1 -0 -1 -1 -1 -1 -1 -1 0 0 -0 1 2 3 3 0 -2 -2 -2 -2 -2 -1 -1 -1
9 7 7 7 6 6 7 7 5 1 1 0 0 0 0 -0 0 0 0 0 0 1 -0 -0 -0 -0 1 0 0 1 1 3 3 2 -0 -2 -2 -2 -2 -2 -2 -2 -2
8 7 7 6 7 6 6 7 6 4 0 1 1 0 1 1 1 1 1 0 0 0 0 0 0 -0 0 1 1 1 1 2 2 2 1 -1 -1 -2 -2 -2 -2 -2 -2
8 7 7 6 6 6 6 6 6 6 2 1 1 1 0 1 1 1 0 1 1 0 1 1 1 1 0 1 2 1 1 1 2 2 2 0 -1 -1 -2 -2 -2 -2 -2
6 6 6 6 6 6 6 6 6 5 3 2 1 0 1 0 0 1 1 1 1 1 1 1 1 1 1 1 1 1 1 1 2 2 2 1 -0 -1 -1 -2 -2 -2 -2
7 7 6 5 4 6 6 6 6 6 4 3 -0 -0 0 1 0 0 1 0 1 1 1 2 2 2 2 2 2 2 2 2 2 3 2 2 0 0 -1 -2 -2 -2 -2
8 7 7 6 6 5 5 6 6 6 6 5 3 -0 -0 0 1 1 1 0 -0 0 1 2 2 3 3 3 3 3 3 2 3 3 2 2 2 1 -0 -1 -1 -2 -2
8 8 8 7 7 7 6 5 6 6 6 6 4 2 -0 -0 0 1 1 0 0 0 1 1 2 2 3 3 3 3 3 3 2 3 4 4 3 2 2 0 -1 -1 -1
9 9 8 8 8 7 7 6 6 7 6 6 5 2 0 -0 -0 0 1 1 1 1 1 1 1 1 2 3 3 3 3 3 3 4 4 4 5 4 3 3 2 1 -0
8 8 8 8 7 7 7 7 6 7 7 7 6 4 2 -0 0 -0 1 1 1 1 1 1 1 2 2 3 3 4 4 3 3 4 4 4 4 5 4 3 3 2 1
8 8 7 7 7 6 6 6 6 6 6 6 4 4 1 0 0 0 0 1 1 1 1 1 1 2 2 2 3 3 5 4 3 2 3 3 4 4 4 4 3 2 2
8 7 7 7 6 5 6 6 5 5 5 4 3 2 1 0 0 0 0 1 1 1 1 1 1 2 3 2 2 3 6 7 4 3 2 2 2 3 3 3 4 3 2
8 7 7 7 7 6 6 6 6 6 7 6 5 2 1 0 0 0 0 0 1 0 1 1 1 1 2 3 2 1 3 4 6 7 4 3 2 2 2 3 3 3 3
8 8 8 7 6 6 6 6 5 6 6 6 5 4 3 1 0 1 0 1 1 1 1 1 1 1 1 2 3 3 3 3 3 5 6 4 3 4 3 2 2 3 3
9 9 9 8 5 5 5 4 4 5 6 6 6 5 4 2 1 1 0 0 0 1 1 1 1 1 1 2 2 2 3 4 4 4 5 5 4 3 3 3 3 3 2